Flag for Western Sahara Weather past 2 weeks in Smara, Western Sahara

Now
77 °F

Sunny.


Feels Like: 77 °F
Forecast: N/A
Wind: 14 mph from Northeast

Location: Laayoune/Hassan Isl

Current Time: Dec 19, 2014 at 4:52:41 PM

Latest Report: Dec 19, 2014 at 4:00 PM


Visibility: 10 mi

Pressure: 30.27 "Hg

Humidity: 18%

Dew point: 30 °F

Location of SmaraLocation

Historic Weather in Smara — Graph

°F

Smara temperature yesterday

Maximum temperature yesterday: 73 °F (at 4:00 PM)
Minimum temperature yesterday: 54 °F (at 8:00 AM)
Average temperature yesterday: 63 °F

Past Weeks' High & Low Weather Summary

 TemperatureHumidityPressure
High79 °F (Dec 19, 3:00 PM)100% (Dec 10, 3:00 AM)30.33 "Hg (Dec 10, 3:00 AM)
Low50 °F (Dec 12, 6:00 AM)17% (Dec 19, 3:00 PM)30.09 "Hg (Dec 4, 4:00 PM)
Average63 °F66%30.22 "Hg
* Reported Dec 4 4:00 PM — Dec 19 4:00 PM, Smara, Weather by CustomWeather, © 2014

Note: Actual official high and low records may vary slightly from our data, if they occured in-between our weather recording intervals... More about our weather records

Advertising

Smara weather history for previous 24 hours

 ConditionsComfort  
Time TempWeatherWind HumidityBarometerVisibility
4:00 PM
Dec 19
77 °FSunny.14 mph18%30.27 "Hg10 mi
3:00 PM79 °FSunny.12 mph17%30.27 "Hg10 mi
2:00 PM75 °FSunny.9 mph21%30.30 "Hg10 mi
9:00 AM57 °FPassing clouds.7 mph59%30.33 "Hg5 mi
8:00 AM52 °FPassing clouds.7 mph77%30.30 "Hg5 mi
7:00 AM54 °FPassing clouds.7 mph72%30.30 "Hg5 mi
5:00 AM55 °FPassing clouds.7 mph67%30.27 "Hg5 mi
4:00 AM54 °FPassing clouds.8 mph67%30.27 "Hg5 mi
3:00 AM59 °FPassing clouds.7 mph82%30.27 "Hg5 mi
2:00 AM59 °FPassing clouds.8 mph82%30.30 "Hg5 mi
1:00 AM61 °FClear.8 mph77%30.30 "Hg10 mi
12:00 AM61 °FClear.8 mph77%30.30 "Hg10 mi
11:00 PM
Dec 18
61 °FClear.8 mph77%30.30 "Hg10 mi
10:00 PM63 °FClear.10 mph77%30.27 "Hg10 mi
9:00 PM63 °FClear.14 mph83%30.27 "Hg10 mi
8:00 PM63 °FClear.10 mph83%30.24 "Hg10 mi
7:00 PM64 °FSunny.10 mph83%30.24 "Hg10 mi
6:00 PM68 °FSunny.9 mph69%30.21 "Hg10 mi
5:00 PM72 °FSunny.1 mph41%30.21 "Hg10 mi
4:00 PM73 °FSunny.1 mph41%30.21 "Hg10 mi
Weather by CustomWeather, © 2014

See weather overviewHow to use our weather pages